Powrót do katalogu

STARLINK-30387

AktywnyŁącznośćVLEO
NORAD 57788·PAYLOAD·🇺🇸 United States

Wystrzelony Sep 4, 2023 z Cape Canaveral Space Force Station

Loading…

Następne Przeloty (najbliższe 24 godziny)

TLE

ŚwieżeSource: CelesTrak SupGP

Epoka: Sep 15, 2026, 01:43 UTC

1 57788C 23134T   26258.07201389 -.00000454  00000+0 -16426-4 0  2586
2 57788  43.0021 193.5704 0001280 267.3126  95.8903 15.27581848    18

Śledź STARLINK-30387 w czasie rzeczywistym z AllMySat

Download on the App Store